Terminal Aerodrome Forecast
Issued by NWS

Home | Current Version | Previous Version | Text Only | Print | Product List | Glossary On
Versions: 1 2 3 4 5 6 7 8 9 10 11 12 13 14 15 16 17 18 19 20 21 22 23 24 25 26 27 28
000
FTUS46 KMTR 301700
TAFSFO
TAF
KSFO 301723Z 3018/3124 29015KT P6SM FEW010 SCT180
     FM302200 28025G30KT P6SM SCT200
     FM310900 27015KT P6SM OVC008
     FM311800 28018G24KT P6SM SCT010=

USA.gov is the U.S. government's official web portal to all federal, state and local government web resources and services.